Regional Weather Roundup
Issued by NWS

Home | Current Version | Previous Version | Text Only | Print | Product List | Glossary Off
Versions: 1 2 3 4 5 6 7 8 9 10 11 12 13 14 15 16 17 18 19 20 21 22 23 24 25 26 27 28 29 30 31 32 33 34 35 36 37 38 39 40 41 42 43 44 45 46 47 48 49 50

344
ASUS43 KOAX 080402
RWRNE

WEATHER ROUNDUP FOR NEBRASKA
NATIONAL WEATHER SERVICE OMAHA NE
1000 PM CST SUN FEB 07 2016

NOTES: SATELLITE DATA IS BEING USED TO AUGMENT CLOUD COVER ABOVE
       12000 FEET.
       "FAIR" INDICATES FEW OR NO CLOUDS BELOW 12,000 FEET WITH NO
       SIGNIFICANT WEATHER AND/OR OBSTRUCTIONS TO VISIBILITY.

  * THESE STATIONS DO NOT REPORT WEATHER SUCH AS RAIN...SNOW OR FOG.

NEZ001>004-019>022-054>056-080500-
NEBRASKA PANHANDLE

CITY           SKY/WX    TMP DP  RH WIND       PRES   REMARKS
SCOTTSBLUFF    CLOUDY    26  14  60 NW14      30.37R WCI  14
ALLIANCE       CLEAR     21  12  68 NW20      30.29R WCI   6
CHADRON        CLEAR     29  14  53 NW22G29   30.32R WCI  15
SIDNEY         CLEAR     26  12  55 NW25      30.33R WCI  11
$$

NEZ057>060-069>072-079>082-080500-
SOUTHWEST NEBRASKA

CITY           SKY/WX    TMP DP  RH WIND       PRES   REMARKS
NORTH PLATTE   CLEAR     28  14  55 NW17G25   30.23R WCI  16
IMPERIAL       CLEAR     28  14  55 NW21G31   30.28S WCI  15
MCCOOK         CLEAR     30  17  58 NW21      30.25R WCI  17
$$

NEZ005>010-023>029-035>040-094-080500-
NORTH CENTRAL NEBRASKA

CITY           SKY/WX    TMP DP  RH WIND       PRES   REMARKS
VALENTINE      CLOUDY    32  18  56 NW24G32   30.18R WCI  19
BROKEN BOW     PTCLDY    33  18  53 NW25G38   30.15R WCI  20
ORD            CLEAR     32  17  54 NW26      30.11S WCI  18
$$

NEZ041-046>049-061>064-073>077-083>087-080500-
SOUTH CENTRAL NEBRASKA

CITY           SKY/WX    TMP DP  RH WIND       PRES   REMARKS
GRAND ISLAND   CLEAR     33  18  53 NW23G32   30.13R WCI  21
HASTINGS       CLEAR     33  19  56 NW26G37   30.13R WCI  20
$$

NEZ011>018-030>034-042>045-080500-
NORTHEAST NEBRASKA

CITY           SKY/WX    TMP DP  RH WIND       PRES   REMARKS
NORFOLK        CLOUDY    34  19  54 NW32G46   30.01R WCI  20
COLUMBUS *     CLOUDY    34  16  47 NW26      30.05S WCI  21
TEKAMAH        SNOW      31  28  89 N25G45    30.00R VSB 1/2 WCI  17
$$

NEZ050>053-065>068-078-088>093-080500-
SOUTHEAST NEBRASKA

CITY           SKY/WX    TMP DP  RH WIND       PRES   REMARKS
LINCOLN        CLOUDY    36  22  56 N29G45    30.05S WCI  23
OMAHA EPPLEY   LGT SNOW  32  30  92 NW21      29.99R FOG     WCI  20
FALLS CITY     CLOUDY    36  28  73 NW16G22   30.02S WCI  26
$$

NEZ044-045-051>053-067-080500-
OMAHA AREA

CITY           SKY/WX    TMP DP  RH WIND       PRES   REMARKS
OMAHA EPPLEY   LGT SNOW  32  30  92 NW21      29.99R FOG     WCI  20
OFFUTT AFB     FLURRIES  34  26  70 NW31G44   29.98S WCI  21
$$




USA.gov is the U.S. government's official web portal to all federal, state and local government web resources and services.